Regional Weather Roundup
Issued by NWS

Home | Current Version | Previous Version | Graphics & Text | Print | Product List | Glossary Off
Versions: 1 2 3 4 5 6 7 8 9 10 11 12 13 14 15 16 17 18 19 20 21 22 23 24 25 26 27 28 29 30 31 32 33 34 35 36 37 38 39 40 41 42 43 44 45 46 47 48 49 50

000
ASUS43 KDTX 220610
RWRMI
MICHIGAN HOURLY REGIONAL WEATHER ROUNDUP
NATIONAL WEATHER SERVICE DETROIT/PONTIAC MI
100 AM EST MON DEC 22 2014

NOTE: "FAIR" INDICATES FEW OR NO CLOUDS BELOW 12,000 FEET WITH NO
SIGNIFICANT WEATHER AND/OR OBSTRUCTION TO VISIBILITY.

MIZ047>049-052>055-059>063-066>070-074>076-081>083-220700-
SOUTHEAST LOWER MICHIGAN

CITY           SKY/WX    TMP DP  RH WIND       PRES   REMARKS
ADRIAN         PTCLDY    26  23  88 E6        30.15F FOG
6HR MIN TEMP:  26; 6HR MAX TEMP:  31;

ALMA           CLEAR     28  26  91 SE6       30.12F FOG
ANN ARBOR      PTCLDY    27  23  85 E6        30.16F FOG
BAD AXE        CLOUDY    30  26  83 S9        30.17F
6HR MIN TEMP:  30; 6HR MAX TEMP:  32;

DETROIT CITY   CLEAR     29  22  75 SE3       30.19F
6HR MIN TEMP:  28; 6HR MAX TEMP:  31;

DETROIT          N/A     28  23  81 E3        30.18F HAZE
6HR MIN TEMP:  28; 6HR MAX TEMP:  31;

FLINT          CLOUDY    31  24  75 SE12      30.16F
6HR MIN TEMP:  31; 6HR MAX TEMP:  34;

GROSSE ILE     PTCLDY    28  25  86 E5        30.17F
HILLSDALE      PTCLDY    27  25  91 SE8       30.11F FOG
HOWELL         CLEAR     27  25  93 SE9       30.13F FOG
6HR MIN TEMP:  26; 6HR MAX TEMP:  31;


CITY           SKY/WX    TMP DP  RH WIND       PRES   REMARKS
JACKSON        PTCLDY    27  24  89 SE8       30.12F FOG
6HR MIN TEMP:  27; 6HR MAX TEMP:  31;

LAMBERTVILLE   MOCLDY    28  23  80 E3        30.16F
LANSING        CLEAR     28  24  85 SE9       30.12F FOG
6HR MIN TEMP:  28; 6HR MAX TEMP:  32;

LAPEER         NOT AVBL
MASON          CLEAR     28  24  87 SE9       30.12F FOG
MONROE         PTCLDY    30  25  80 SE7       30.15F
MT. CLEMENS    MOCLDY    30  26  84 SE8       30.17S
6HR MIN TEMP:  28; 6HR MAX TEMP:  31;

PONTIAC        CLEAR     26  23  88 SE6       30.15F FOG
6HR MIN TEMP:  26; 6HR MAX TEMP:  30;

PORT HOPE        N/A     31  23  72 S8        30.16F
6HR MIN TEMP:  31; 6HR MAX TEMP:  32;

PORT HURON     CLOUDY    23  23 100 CALM      30.19F FOG
TRI CITIES     CLOUDY    32  23  69 SE10      30.15F
6HR MIN TEMP:  32; 6HR MAX TEMP:  34;

YPSILANTI      PTCLDY    29  22  75 E3        30.17F HAZE
6HR MIN TEMP:  28; 6HR MAX TEMP:  33;

$$
MIZ043>046-050>051-056>058-064>065-071>073-077>080-220700-
SOUTHWEST LOWER MICHIGAN

CITY           SKY/WX    TMP DP  RH WIND       PRES   REMARKS
BATTLE CREEK   CLEAR     29  23  78 SE8       30.09F
6HR MIN TEMP:  29; 6HR MAX TEMP:  32;

BENTON HARBOR  PTCLDY    30  25  81 SE12      30.06F
6HR MIN TEMP:  30; 6HR MAX TEMP:  32;

BIG RAPIDS     CLOUDY    29  28  94 SE6       30.07F FOG
6HR MIN TEMP:  29; 6HR MAX TEMP:  32;

COLDWATER      PTCLDY    28  24  84 MISG      30.09F
6HR MIN TEMP:  28; 6HR MAX TEMP:  30;

HOLLAND        CLOUDY    33  25  72 SE10      30.07F
6HR MIN TEMP:  32; 6HR MAX TEMP:  36;

GRAND RAPIDS   CLEAR     29  24  82 SE9       30.09F HAZE
6HR MIN TEMP:  29; 6HR MAX TEMP:  30;

KALAMAZOO      PTCLDY    29  24  82 SE6       30.09F
6HR MIN TEMP:  29; 6HR MAX TEMP:  32;

MARSHALL       PTCLDY    27  23  87 SE8       30.10F
MUSKEGON       PTCLDY    31  25  78 SE9       30.07F
6HR MIN TEMP:  31; 6HR MAX TEMP:  35;

$$
MIZ016>042-220700-
NORTHERN LOWER MICHIGAN

CITY           SKY/WX    TMP DP  RH WIND       PRES   REMARKS
ALPENA         CLOUDY    31  26  82 S12       30.14F
6HR MIN TEMP:  30; 6HR MAX TEMP:  31;

BEAVER ISLAND  CLOUDY    33  30  88 SE8       30.05F
6HR MIN TEMP:  33; 6HR MAX TEMP:  34;

BELLAIRE       CLOUDY    33  28  81 SE9       30.08F
6HR MIN TEMP:  32; 6HR MAX TEMP:  33;

CADILLAC       PTCLDY    29  26  88 SE12      30.04F FOG
CHARLEVOIX     CLOUDY    32  28  84 SE10      30.08F
6HR MIN TEMP:  32; 6HR MAX TEMP:  32;

FRANKFORT      CLOUDY    32  28  84 SE8       30.05S
GAYLORD        CLOUDY    28  24  85 S12       30.06F
6HR MIN TEMP:  28; 6HR MAX TEMP:  29;

GRAYLING       CLOUDY    29  25  86 SE8       30.10F
6HR MIN TEMP:  28; 6HR MAX TEMP:  31;

HARBOR SPRINGS CLOUDY    32  27  82 E6        30.07F
HOUGHTON LAKE  MOCLDY    26  22  84 SE3       30.10F
6HR MIN TEMP:  26; 6HR MAX TEMP:  30;

MANISTEE       MOCLDY    32  25  74 SE5       30.05F
OSCODA         CLOUDY    32  27  81 S8        30.16F
PELLSTON       CLOUDY    32  27  81 SE9       30.08F
6HR MIN TEMP:  32; 6HR MAX TEMP:  33;

TRAVERSE CITY  CLOUDY    33  27  78 SE8       30.05F
6HR MIN TEMP:  33; 6HR MAX TEMP:  34;

$$
MIZ007>008-015-220700-
EASTERN UPPER MICHIGAN

CITY           SKY/WX    TMP DP  RH WIND       PRES   REMARKS
KINROSS        CLOUDY    30  28  93 S8        30.07F
6HR MIN TEMP:  30; 6HR MAX TEMP:  32;

MACKINAC ISLAN CLOUDY    32  28  86 S7        30.07F
6HR MIN TEMP:  32; 6HR MAX TEMP:  32;

NEWBERRY       CLOUDY    32  31  96 S12G18    30.02S FOG
6HR MIN TEMP:  31; 6HR MAX TEMP:  32;

S. S. MARIE    CLOUDY    32  28  85 SE10      30.11R
6HR MIN TEMP:  31; 6HR MAX TEMP:  32;

$$
MIZ004>006-011>014-085-220700-
CENTRAL UPPER MICHIGAN

CITY           SKY/WX    TMP DP  RH WIND       PRES   REMARKS
MANISTIQUE     CLOUDY    34  33  96 S14G22    30.01S FOG
6HR MIN TEMP:  33; 6HR MAX TEMP:  35;

ESCANABA       CLOUDY    36  30  80 S17       29.96S
6HR MIN TEMP:  36; 6HR MAX TEMP:  37;

MENOMINEE      CLOUDY    36  32  87 SW14      29.96S
6HR MIN TEMP:  36; 6HR MAX TEMP:  37;

SAWYER-GWINN   LGT SNOW  33  32  95 S17       29.90S
$$
MIZ001>003-009>011-084-220700-
WESTERN UPPER MICHIGAN

CITY           SKY/WX    TMP DP  RH WIND       PRES   REMARKS
IRON MOUNTAIN  LGT SNOW  33  31  92 S14G22    29.90R FOG
6HR MIN TEMP:  33; 6HR MAX TEMP:  34; 6HR PCP: TRACE;

HOUGHTON       LGT SNOW  32  31  96 SE9       29.83F VSB 1
6HR MIN TEMP:  32; 6HR MAX TEMP:  32; 6HR PCP:  0.17;

COPPER HARBOR    N/A     35  32  88 SW12G22   29.86S
6HR MIN TEMP:  34; 6HR MAX TEMP:  35; 6HR PCP:  0.28;

IRONWOOD       CLOUDY    36  34  93 S10       29.76F
6HR MIN TEMP:  34; 6HR MAX TEMP:  36;

$$

ABBREVIATIONS USED IN REMARKS
   TC - TEMPERATURE IN CELSIUS
  WCI - WIND CHILL INDEX
   HX - HEAT INDEX
  VSB - VISIBILITY




USA.gov is the U.S. government's official web portal to all federal, state and local government web resources and services.